Regional Weather Roundup
Issued by NWS

Home | Current Version | Previous Version | Text Only | Print | Product List | Glossary On
Versions: 1 2 3 4 5 6 7 8 9 10 11 12 13 14 15 16 17 18 19 20 21 22 23 24 25 26 27 28 29 30 31 32 33 34 35 36 37 38 39 40 41 42 43 44 45 46 47 48 49 50
000
ASUS43 KDMX 171101
RWRIA

WEATHER ROUNDUP FOR IOWA
NATIONAL WEATHER SERVICE DES MOINES IA
600 AM CDT TUE OCT 17 2017

NOTE: "FAIR" INDICATES FEW OR NO CLOUDS BELOW 12,000 FEET WITH NO
SIGNIFICANT WEATHER AND/OR OBSTRUCTIONS TO VISIBILITY.

* - THESE STATIONS ARE NOT NWS STATIONS...THUS NOT UNDER NWS
QUALITY CONTROL.  THEY ALSO DO NOT REPORT WEATHER SUCH
AS PRECIPITATION OR FOG.

IAZ001>003-012>014-020>022-031>034-043>046-171200-
   NORTHWEST IOWA

CITY           SKY/WX    TMP DP  RH WIND       PRES   REMARKS
CARROLL *      PTCLDY    54  45  71 SW15      30.08S
CHEROKEE *     CLEAR     44  40  88 CALM      30.07R
DENISON *      CLEAR     48  41  76 S6G13     30.10F
LE MARS *      CLEAR     41  39  93 CALM      30.06S
ORANGE CITY *  CLEAR     45  39  81 CALM      30.05S
SHELDON *      CLEAR     37  36  93 SE5       30.04S WCI  34
SIOUX CITY     CLEAR     39  38  96 SE8       30.07R WCI  33
SPENCER        CLEAR     46  39  76 W6        30.05S
STORM LAKE *   CLEAR     48  39  71 SW10      30.07S
$$

IAZ055>058-069>071-079>083-090>094-171200-
   SOUTHWEST IOWA

CITY           SKY/WX    TMP DP  RH WIND       PRES   REMARKS
ATLANTIC *     CLEAR     45  41  87 SW6       30.13R
AUDUBON *      CLEAR     46  41  81 S5        30.12F
CLARINDA *     CLEAR     46  41  81 S6        30.17S
COUNCIL BLFS * CLEAR     52  43  71 S8        30.11R
CRESTON *      CLEAR     46  41  81 S12       30.15F
HARLAN  *      CLEAR     43  39  87 S5        30.15R
LAMONI         CLEAR     47  40  76 S10       30.18R
RED OAK *      CLEAR     45  39  81 S6        30.13S
SHENANDOAH *   CLEAR     46  41  81 S6        30.14S
$$

IAZ047>049-059>061-072>074-084-171200-
   CENTRAL IOWA

CITY           SKY/WX    TMP DP  RH WIND       PRES   REMARKS
AMES           CLEAR     49  42  77 SW7       30.11S
ANKENY *       CLEAR     52  41  66 SW8       30.14S
BOONE *        CLEAR     50  41  71 SW10      30.09S
CHARITON *     CLEAR     48  41  76 SW8G15    30.16R
DES MOINES     CLEAR     51  40  65 S9        30.13S
GRINNELL*      CLEAR     49  40  72 S7        30.15S
KNOXVILLE *    CLEAR     52  39  62 SW10      30.14R
MARSHALLTOWN   CLEAR     50  41  71 SW8       30.11R
NEWTON *       CLEAR     50  41  71 SW9       30.14S
PELLA *        CLEAR     49  40  72 SW7       30.16S
PERRY *          N/A     52  38  60 S7        30.11S
$$

IAZ004>006-015-016-023>025-035-036-171200-
   NORTH CENTRAL IOWA

CITY           SKY/WX    TMP DP  RH WIND       PRES   REMARKS
ALGONA *       CLEAR     45  41  87 SW9       30.06S
CLARION *      PTCLDY    46  43  87 S9        30.07F
ESTHERVILLE    CLEAR     49  40  71 SW9       30.04R
FORT DODGE *   CLEAR     47  40  76 S6        30.09R
MASON CITY     CLEAR     51  40  65 SW13      30.07R
FOREST CITY *    N/A     43  39  87 SW5       30.06S
WEBSTER CITY * CLEAR     46  39  76 S8        30.07S
IOWA FALLS *     N/A     48  41  75 S6        30.11R
$$

IAZ007>011-017>019-026>030-037>042-050>054-066-171200-
   NORTHEAST IOWA

CITY           SKY/WX    TMP DP  RH WIND       PRES   REMARKS
CEDAR RAPIDS   CLEAR     48  40  73 S8        30.14R
CHARLES CITY * CLEAR     45  39  81 S7        30.08R
DECORAH *      CLEAR     50  41  71 VRB7G13   30.06S
DUBUQUE        CLOUDY    47  40  76 SW14      30.12S
MONTICELLO *   PTCLDY    50  41  71 S7        30.14R
OELWEIN *      CLEAR     45  41  87 S8        30.10F
WATERLOO       CLEAR     49  40  71 SW7       30.09R
$$

IAZ064-065-067-068-078-171200-
   EAST CENTRAL IOWA

CITY           SKY/WX    TMP DP  RH WIND       PRES   REMARKS
DAVENPORT      CLOUDY    49  40  71 S7        30.21R
IOWA CITY      CLEAR     49  41  74 S7        30.18S
MUSCATINE *    CLEAR     50  41  71 S8        30.20R
QUAD CITIES    CLEAR     49  39  68 S7        30.19R
$$

IAZ062-063-075>077-085>089-095>099-171200-
   SOUTHEAST IOWA

CITY           SKY/WX    TMP DP  RH WIND       PRES   REMARKS
BURLINGTON     CLEAR     45  41  86 S6        30.22R
FAIRFIELD *    PTCLDY    50  39  66 SW8       30.18S
FORT MADISON * CLOUDY    48  43  81 S8        30.23R
KEOKUK *       CLOUDY    48  41  76 S6        30.22R
OSKALOOSA *      N/A     46  40  80 S9        30.17S
OTTUMWA        CLEAR     48  41  76 S9        30.18R
WASHINGTON *   CLEAR     46  41  81 S9        30.19S
$$

ABBREVIATIONS USED IN REMARKS
   TC - TEMPERATURES IN CELSIUS
  WCI - WIND CHILL INDEX
   HX - HEAT INDEX
  VSB - VISIBILITY
$$




USA.gov is the U.S. government's official web portal to all federal, state and local government web resources and services.